Aman Zhineng Yaogan-1

operational
NORAD ID: 61899 Int'l Des: NNA 2024-205 Owner: SQU/STARV Country: OM Constellation: yaogan
LEOCIRCULARRETROGRADESSO

About Aman Zhineng Yaogan-1

Description loading...

Live Position

Loading 3D Globe...

Upcoming Passes

Altitude History

Altitude vs Time

uPlot chart will show altitude changes over time

Two-Line Element Set

1 61899U 24205F 26061.20912888 .00013043 00000-0 66284-3 0 9999
2 61899 97.4200 135.1177 0008102 265.3277 94.7031 15.16968530 72079
Epoch: Mar 2, 2026 • Age: 27 hours

Current Status

Altitude 522.5 km
Velocity 7.60 km/s
Sub-Earth Point -28.90°S, 113.23°E
Launch Date Nov 11, 2024
Age 1.3 years
Type military

Technical Details

Classification Payload
Mass 100.00 kg
Dry Mass 100.00 kg
Total Mass 100.00 kg
Length 0.30 m
Diameter 0.30 m
Span 1.00 m
Shape Box + 2 pan
Manufacturer STARV/SQU
Phase Status In Orbit
Owner/State SQU/STARV/OM

Large Constellations

Loading constellations...